This is the latest recevied weather packets stored in our database for station/object WA0LM. If no packets are shown the sender has not sent any weather packets the latest 10 day(s).
| Time | Temp. | Humidity | Pressure | Rain* | Wind** | Luminosity | Snow |
|---|---|---|---|---|---|---|---|
| 1777891837 | 11.67° C | 66% | 993.9 hPa | 0 mm | - | 1 W/m² | - |
| 1777891534 | 11.67° C | 64% | 993.9 hPa | 0 mm | - | 0 W/m² | - |
| 1777891231 | 11.67° C | 67% | 994 hPa | 0 mm | - | 0 W/m² | - |
| 1777890931 | 12.22° C | 65% | 993.9 hPa | 0 mm | - | 0 W/m² | - |
| 1777890626 | 12.22° C | 65% | 993.7 hPa | 0 mm | - | 0 W/m² | - |
| 1777890321 | 12.78° C | 65% | 993.4 hPa | 0 mm | - | 0 W/m² | - |
| 1777890018 | 12.78° C | 65% | 993.4 hPa | 0 mm | - | 0 W/m² | - |
| 1777889715 | 12.78° C | 65% | 993.2 hPa | 0 mm | - | 0 W/m² | - |
| 1777889413 | 13.33° C | 60% | 993 hPa | 0 mm | - | 0 W/m² | - |
| 1777889110 | 13.89° C | 60% | 993.2 hPa | 0 mm | - | 0 W/m² | - |
| 1777888808 | 14.44° C | 57% | 993.2 hPa | 0 mm | - | 0 W/m² | - |
| 1777888504 | 14.44° C | 55% | 993 hPa | 0 mm | - | 0 W/m² | - |
| 1777888200 | 15° C | 51% | 992.5 hPa | 0 mm | - | 0 W/m² | - |
| 1777887897 | 15° C | 51% | 992.6 hPa | 0 mm | - | 0 W/m² | - |
| 1777887594 | 15° C | 50% | 992.5 hPa | 0 mm | - | 0 W/m² | - |
| 1777887290 | 15° C | 49% | 992.4 hPa | 0 mm | - | 0 W/m² | - |
| 1777886986 | 14.44° C | 51% | 992.4 hPa | 0 mm | - | 0 W/m² | - |
| 1777886682 | 15° C | 51% | 992.4 hPa | 0 mm | - | 0 W/m² | - |
| 1777886379 | 15° C | 49% | 992.5 hPa | 0 mm | - | 0 W/m² | - |
| 1777886077 | 15° C | 47% | 992.5 hPa | 0 mm | - | 0 W/m² | - |
| 1777885775 | 15° C | 48% | 992.6 hPa | 0 mm | - | 0 W/m² | - |
| 1777885473 | 15° C | 47% | 992.8 hPa | 0 mm | - | 0 W/m² | - |
| 1777885172 | 15° C | 49% | 992.8 hPa | 0 mm | - | 0 W/m² | - |
| 1777884868 | 15° C | 45% | 992.8 hPa | 0 mm | - | 0 W/m² | - |
| 1777884565 | 15° C | 48% | 993.1 hPa | 0 mm | - | 0 W/m² | - |
* Rain latest hour (hover to see other rain measurements)
** Current wind speed in m/s (hover to see current wind gust speed)